Starlink 32196

operational
NORAD ID: 60430 Int'l Des: 2024-144 Owner: SPXS Country: US Constellation: starlink
LEOCIRCULAR

Über Starlink 32196

Beschreibung wird geladen...

Live-Position

3D-Globus wird geladen...

Nächste Überflüge

Höhenverlauf

Altitude vs Time

uPlot chart will show altitude changes over time

Zweizeiliger Elementsatz

1 60430U 24144F 25349.92759101 .00003026 00000-0 11431-3 0 9999
2 60430 53.1599 246.2791 0001627 94.9477 265.1710 15.30188759 76488
Epoch: 15. Dez. 2025 • Age: 22 hours

Aktueller Status

Höhe 484.4 km
Geschwindigkeit 7.62 km/s
Subsatellitenpunkt -28.14°S, 167.91°W
Startdatum 12. Aug. 2024
Alter 1.3 years
Typ internet

Technische Details

Klassifizierung Payload
Masse 730.00 kg
Trockenmasse 700.00 kg
Gesamtmasse 730.00 kg
Länge 0.30 m
Durchmesser 4.10 m
Spannweite 29.00 m
Form Box + pan
Hersteller SPXS
Bus-Typ Starlink V2M
Phasenstatus In Orbit
Besitzer/Staat SPXS/US

Große Konstellationen

Loading constellations...